Florala, AL

11:51 AM CDT on August 18, 2017 (GMT -0500)
Florala

Weather History for K0J4 - August, 2013

Change the Weather History Date:

Saturday, August 17, 2013

  Actual Average (KCEW) Record (KCEW)
Temperature  
Mean Temperature 72 °F -  
Max Temperature 73 °F 92 °F 100 °F (1990)
Min Temperature 71 °F 70 °F 64 °F (2011)
Cooling Degree Days 7    
Growing Degree Days 22 (Base 50)    
Moisture  
Dew Point 70 °F    
Average Humidity 95    
Maximum Humidity 100    
Minimum Humidity 88    
Precipitation  
Precipitation 1.37 in - - ()
Sea Level Pressure  
Sea Level Pressure 30.05 in    
Wind  
Wind Speed 5 mph (East)    
Max Wind Speed 10 mph    
Max Gust Speed 17 mph    
Visibility 8 miles    
Events Rain    
Averages and records for this station are not official NWS values.
T = Trace of Precipitation, MM = Missing Value Source: NWS Daily Summary

Daily Weather History Graph

Daily Weather History Graph

Search for Another Location

Airport or City:

Trip Planner

Search our weather history database for the weather conditions in past years. The results will help you decide how hot, cold, wet, or windy it might be!

Date:

Astronomy

Aug. 17, 2013 Rise Set
Actual Time 6:12 AM CDT 7:25 PM CDT
Civil Twilight 5:47 AM CDT 7:50 PM CDT
Nautical Twilight 5:17 AM CDT 8:20 PM CDT
Astronomical Twilight 4:45 AM CDT 8:51 PM CDT
Moon 4:34 PM CDT (8/17) 2:22 AM CDT (8/17)
Length of Visible Light 14h 03m
Length of Day
13h 12m
Waxing Gibbous, 84% of the Moon is Illuminated
Aug 17
Waxing Gibbous
Aug 20
Full
Aug 28
Last Quarter
Sep 5
New
Sep 12
First Quarter

Hourly Weather History & Observations

Time (CDT) Temp. Dew Point Humidity Pressure Visibility Wind Dir Wind Speed Gust Speed Precip Events Conditions
12:58 AM 73.0 °F 71.1 °F 93% 30.02 in 8.0 mi NE 5.8 mph - N/A   Overcast
1:10 AM 73.4 °F 71.6 °F 94% 30.03 in 8.0 mi NNE 4.6 mph - N/A   Overcast
1:58 AM 73.0 °F 71.1 °F 93% 30.01 in 7.0 mi NE 4.6 mph - N/A   Overcast
2:43 AM 71.6 °F 71.6 °F 100% 30.02 in 2.0 mi NE 4.6 mph - N/A   Overcast
2:58 AM 72.0 °F 71.1 °F 97% 30.00 in 3.0 mi NE 5.8 mph - N/A   Overcast
3:14 AM 71.6 °F 71.6 °F 100% 30.01 in 2.5 mi NE 5.8 mph - N/A   Overcast
3:23 AM 71.6 °F 71.6 °F 100% 30.00 in 1.8 mi NE 5.8 mph - N/A   Overcast
3:42 AM 71.6 °F 71.6 °F 100% 30.00 in 2.0 mi ENE 4.6 mph - N/A   Overcast
3:57 AM 72.0 °F 71.1 °F 97% 29.99 in 3.0 mi ENE 3.5 mph - N/A   Overcast
4:58 AM 72.0 °F 71.1 °F 97% 30.01 in 4.0 mi NNE 3.5 mph - 0.16 in Rain Light Rain
5:24 AM 71.6 °F 69.8 °F 94% 30.02 in 4.0 mi NNE 4.6 mph - 0.09 in   Overcast
5:36 AM 71.6 °F 69.8 °F 94% 30.02 in 3.0 mi NE 6.9 mph - 0.15 in   Overcast
5:40 AM 71.6 °F 71.6 °F 100% 30.02 in 2.5 mi NE 6.9 mph - 0.18 in   Overcast
5:58 AM 71.1 °F 70.0 °F 96% 30.00 in 3.0 mi ENE 6.9 mph - 0.28 in   Overcast
6:14 AM 71.6 °F 69.8 °F 94% 30.02 in 4.0 mi ENE 6.9 mph - 0.07 in   Overcast
6:20 AM 71.6 °F 69.8 °F 94% 30.02 in 4.0 mi ENE 6.9 mph - 0.09 in   Overcast
6:41 AM 71.6 °F 69.8 °F 94% 30.03 in 4.0 mi East 4.6 mph - 0.17 in   Overcast
6:58 AM 71.1 °F 70.0 °F 96% 30.01 in 4.0 mi East 5.8 mph - 0.25 in   Overcast
7:58 AM 71.1 °F 70.0 °F 96% 30.03 in 2.5 mi ENE 5.8 mph - 0.28 in   Overcast
8:20 AM 71.6 °F 69.8 °F 94% 30.03 in 3.0 mi NE 8.1 mph - 0.11 in   Overcast
8:58 AM 71.1 °F 70.0 °F 96% 30.05 in 4.0 mi Variable 5.8 mph - 0.22 in   Overcast
9:45 AM 71.6 °F 69.8 °F 94% 30.08 in 10.0 mi East 5.8 mph - 0.05 in   Overcast
9:58 AM 72.0 °F 70.0 °F 93% 30.10 in 10.0 mi East 5.8 mph - 0.05 in   Overcast
10:58 AM 72.0 °F 70.0 °F 93% 30.09 in 10.0 mi ENE 6.9 mph - 0.00 in Rain Light Rain
11:18 AM 71.6 °F 69.8 °F 94% 30.10 in 10.0 mi East 6.9 mph - 0.00 in   Overcast
11:49 AM 71.6 °F 69.8 °F 94% 30.10 in 10.0 mi Calm Calm - 0.01 in Rain Light Rain
11:58 AM 72.0 °F 70.0 °F 93% 30.08 in 9.0 mi East 4.6 mph - 0.02 in Rain Light Rain
12:53 PM 71.6 °F 69.8 °F 94% 30.12 in 10.0 mi East 5.8 mph - 0.01 in Rain Light Rain
12:58 PM 72.0 °F 70.0 °F 93% 30.11 in 10.0 mi East 5.8 mph - 0.01 in Rain Light Rain
1:28 PM 71.6 °F 69.8 °F 94% 30.08 in 10.0 mi ESE 6.9 mph - 0.00 in Rain Light Rain
1:52 PM 71.6 °F 69.8 °F 94% 30.04 in 10.0 mi SE 6.9 mph - 0.00 in   Overcast
1:58 PM 72.0 °F 70.0 °F 93% 30.04 in 9.0 mi SE 9.2 mph - 0.00 in Rain Light Rain
2:03 PM 71.6 °F 69.8 °F 94% 30.05 in 8.0 mi SSE 10.4 mph - 0.00 in Rain Light Rain
2:14 PM 71.6 °F 69.8 °F 94% 30.04 in 8.0 mi ESE 9.2 mph 17.3 mph 0.01 in Rain Light Rain
2:41 PM 71.6 °F 69.8 °F 94% 30.03 in 8.0 mi SE 8.1 mph - 0.03 in Rain Light Rain
2:58 PM 72.0 °F 70.0 °F 93% 30.00 in 6.0 mi Variable 5.8 mph - 0.05 in Rain Light Rain
3:12 PM 71.6 °F 69.8 °F 94% 30.00 in 5.0 mi ESE 6.9 mph - 0.02 in Rain Light Rain
3:58 PM 72.0 °F 70.0 °F 93% 30.02 in 10.0 mi SE 5.8 mph - 0.05 in Rain Light Rain
4:13 PM 71.6 °F 69.8 °F 94% 30.04 in 10.0 mi SE 5.8 mph - 0.00 in Rain Light Rain
4:58 PM 72.0 °F 70.0 °F 93% 30.04 in 10.0 mi SSE 4.6 mph - 0.00 in   Overcast
5:03 PM 71.6 °F 69.8 °F 94% 30.05 in 10.0 mi Calm Calm - N/A   Overcast
5:23 PM 73.4 °F 69.8 °F 88% 30.06 in 10.0 mi South 4.6 mph - N/A   Overcast
5:29 PM 73.4 °F 71.6 °F 94% 30.06 in 10.0 mi Calm Calm - N/A   Mostly Cloudy
5:38 PM 73.4 °F 71.6 °F 94% 30.06 in 10.0 mi South 5.8 mph - 0.00 in Rain Light Rain
5:53 PM 73.4 °F 71.6 °F 94% 30.06 in 10.0 mi SSE 6.9 mph - 0.00 in Rain Light Rain
5:58 PM 73.0 °F 71.1 °F 93% 30.05 in 10.0 mi SSE 5.8 mph - 0.00 in Rain Light Rain
6:10 PM 73.4 °F 71.6 °F 94% 30.05 in 10.0 mi SSE 6.9 mph - 0.00 in Rain Light Rain
6:58 PM 73.0 °F 71.1 °F 93% 30.10 in 10.0 mi Calm Calm - 0.00 in   Clear
7:58 PM 72.0 °F 70.0 °F 93% 30.11 in 10.0 mi Calm Calm - N/A   Scattered Clouds
8:05 PM 71.6 °F 71.6 °F 100% 30.11 in 10.0 mi Calm Calm - N/A   Scattered Clouds
8:14 PM 71.6 °F 71.6 °F 100% 30.11 in 10.0 mi Calm Calm - 0.00 in Rain Light Rain
8:30 PM 71.6 °F 71.6 °F 100% 30.10 in 9.0 mi Calm Calm - 0.00 in Rain Light Rain
8:58 PM 72.0 °F 70.0 °F 93% 30.10 in 10.0 mi Calm Calm - 0.00 in Rain Light Rain
9:03 PM 71.6 °F 69.8 °F 94% 30.10 in 10.0 mi NE 3.5 mph - N/A   Scattered Clouds
9:13 PM 71.6 °F 69.8 °F 94% 30.09 in 9.0 mi Calm Calm - N/A   Mostly Cloudy
9:38 PM 71.6 °F 69.8 °F 94% 30.08 in 10.0 mi East 3.5 mph - N/A   Overcast
9:58 PM 71.1 °F 70.0 °F 96% 30.06 in 10.0 mi East 3.5 mph - N/A   Mostly Cloudy
10:58 PM 71.1 °F 70.0 °F 96% 30.06 in 10.0 mi Variable 3.5 mph - 0.00 in   Mostly Cloudy
11:58 PM 71.1 °F 69.1 °F 93% 30.03 in 10.0 mi East 4.6 mph - N/A   Overcast